When you browse on this site, cookies collect data to enhance your experience and personalize the content and advertising you see.
Visit our Privacy Policy to learn more. By continuing to use the site, you agree to this use of cookies and data.

Hourly Weather Tuxtepec

Today, 29 September, Tuesday

Time Temperature Precipitation Wind Pressure Humidity
00:00 +24°C° 2.6 mm 0 mps 756 mmHg 96%
01:00 +26°C° 1.2 mm 1 mps 756 mmHg 96%
02:00 +26°C° 1.2 mm 1 mps 756 mmHg 97%
03:00 +25°C° 1.2 mm 1 mps 756 mmHg 97%
04:00 +25°C° 2.1 mm 1 mps 756 mmHg 97%
05:00 +25°C° 2.1 mm 1 mps 756 mmHg 96%
06:00 +25°C° 2.1 mm 2 mps 757 mmHg 96%
07:00 +26°C° 1.9 mm 2 mps 757 mmHg 94%
08:00 +27°C° 1.9 mm 2 mps 758 mmHg 92%
09:00 +28°C° 1.9 mm 2 mps 759 mmHg 90%
10:00 +27°C° 0.9 mm 2 mps 758 mmHg 90%
11:00 +27°C° 0.9 mm 2 mps 758 mmHg 89%
12:00 +27°C° 0.9 mm 2 mps 758 mmHg 89%
13:00 +26°C° 0.1 mm 2 mps 758 mmHg 89%
14:00 +25°C° 0.1 mm 2 mps 757 mmHg 88%
15:00 +25°C° 0.1 mm 2 mps 757 mmHg 87%
16:00 +24°C° 0.6 mm 2 mps 758 mmHg 90%
17:00 +23°C° 0.6 mm 2 mps 758 mmHg 92%
18:00 +22°C° 0.6 mm 1 mps 758 mmHg 95%
19:00 +22°C° 0.1 mm 1 mps 759 mmHg 94%
20:00 +22°C° 0.1 mm 1 mps 760 mmHg 94%
21:00 +22°C° 0.1 mm 1 mps 761 mmHg 93%
22:00 +22°C° 0.1 mm 1 mps 761 mmHg 93%
23:00 +22°C° 0.1 mm 1 mps 760 mmHg 92%

Tomorrow, 30 September, Wednesday

Time Temperature Precipitation Wind Pressure Humidity
00:00 +22°C° 0.1 mm 1 mps 760 mmHg 92%
01:00 +20°C° 0.1 mm 2 mps 760 mmHg 90%
02:00 +20°C° 0.1 mm 2 mps 760 mmHg 89%
03:00 +20°C° 0.1 mm 3 mps 760 mmHg 87%
04:00 +20°C° 0.1 mm 3 mps 760 mmHg 84%
05:00 +20°C° 0.1 mm 2 mps 760 mmHg 81%
06:00 +19°C° 0.1 mm 2 mps 760 mmHg 78%
07:00 +20°C° 0 mm 2 mps 761 mmHg 76%
08:00 +21°C° 0 mm 2 mps 762 mmHg 74%
09:00 +23°C° 0 mm 2 mps 762 mmHg 72%
10:00 +24°C° 0 mm 2 mps 762 mmHg 68%
11:00 +26°C° 0 mm 2 mps 761 mmHg 63%
12:00 +27°C° 0 mm 2 mps 760 mmHg 59%
13:00 +27°C° 0 mm 2 mps 760 mmHg 60%
14:00 +27°C° 0 mm 2 mps 759 mmHg 61%
15:00 +27°C° 0 mm 3 mps 758 mmHg 62%
16:00 +26°C° 0 mm 2 mps 759 mmHg 68%
17:00 +25°C° 0 mm 2 mps 759 mmHg 73%
18:00 +24°C° 0 mm 1 mps 759 mmHg 78%
19:00 +23°C° 0 mm 1 mps 760 mmHg 78%
20:00 +23°C° 0 mm 1 mps 760 mmHg 78%
21:00 +22°C° 0 mm 1 mps 761 mmHg 78%
22:00 +21°C° 0 mm 2 mps 761 mmHg 77%
23:00 +21°C° 0 mm 2 mps 761 mmHg 76%

Day after tomorrow, 1 October, Thursday

Time Temperature Precipitation Wind Pressure Humidity
00:00 +21°C° 0 mm 2 mps 761 mmHg 76%
01:00 +21°C° 0 mm 2 mps 760 mmHg 76%
02:00 +20°C° 0 mm 2 mps 760 mmHg 77%
03:00 +21°C° 0 mm 1 mps 759 mmHg 78%
04:00 +21°C° 0 mm 1 mps 759 mmHg 78%
05:00 +20°C° 0 mm 1 mps 759 mmHg 78%
06:00 +20°C° 0 mm 1 mps 759 mmHg 78%
07:00 +22°C° 0 mm 1 mps 760 mmHg 75%
08:00 +24°C° 0 mm 2 mps 760 mmHg 72%
09:00 +25°C° 0 mm 2 mps 760 mmHg 69%
10:00 +26°C° 0 mm 2 mps 760 mmHg 66%
11:00 +27°C° 0 mm 3 mps 760 mmHg 63%
12:00 +28°C° 0 mm 3 mps 759 mmHg 60%
13:00 +28°C° 0 mm 3 mps 759 mmHg 60%
14:00 +28°C° 0 mm 3 mps 758 mmHg 61%
15:00 +28°C° 0 mm 3 mps 758 mmHg 61%
16:00 +27°C° 0 mm 3 mps 758 mmHg 67%
17:00 +26°C° 0 mm 2 mps 758 mmHg 73%
18:00 +24°C° 0 mm 2 mps 759 mmHg 78%
19:00 +24°C° 0 mm 2 mps 760 mmHg 79%
20:00 +23°C° 0 mm 1 mps 760 mmHg 80%
21:00 +22°C° 0 mm 1 mps 761 mmHg 81%
22:00 +22°C° 0 mm 1 mps 761 mmHg 81%
23:00 +21°C° 0 mm 2 mps 761 mmHg 81%

2 October, Friday

Time Temperature Precipitation Wind Pressure Humidity
00:00 +20°C° 0 mm 2 mps 761 mmHg 81%
01:00 +20°C° 0 mm 2 mps 761 mmHg 81%
02:00 +21°C° 0 mm 1 mps 760 mmHg 81%
03:00 +20°C° 0 mm 1 mps 760 mmHg 81%
04:00 +20°C° 0 mm 1 mps 760 mmHg 81%
05:00 +20°C° 0 mm 1 mps 760 mmHg 80%
06:00 +20°C° 0 mm 1 mps 760 mmHg 79%
07:00 +22°C° 0 mm 1 mps 760 mmHg 75%
08:00 +24°C° 0 mm 1 mps 761 mmHg 70%
09:00 +25°C° 0 mm 1 mps 761 mmHg 66%
10:00 +26°C° 0 mm 1 mps 760 mmHg 63%
11:00 +28°C° 0 mm 1 mps 760 mmHg 60%
12:00 +29°C° 0 mm 2 mps 760 mmHg 57%
13:00 +29°C° 0 mm 2 mps 759 mmHg 59%
14:00 +29°C° 0 mm 2 mps 758 mmHg 60%
15:00 +29°C° 0 mm 2 mps 757 mmHg 62%
16:00 +28°C° 0.1 mm 1 mps 758 mmHg 67%
17:00 +26°C° 0.1 mm 1 mps 758 mmHg 72%
18:00 +25°C° 0.1 mm 1 mps 758 mmHg 77%
19:00 +25°C° 0 mm 1 mps 759 mmHg 76%
20:00 +25°C° 0 mm 1 mps 759 mmHg 75%
21:00 +24°C° 0 mm 1 mps 760 mmHg 74%
22:00 +24°C° 0 mm 1 mps 760 mmHg 74%
23:00 +23°C° 0 mm 1 mps 760 mmHg 75%

3 October, Saturday

Time Temperature Precipitation Wind Pressure Humidity
00:00 +23°C° 0 mm 1 mps 760 mmHg 75%
01:00 +23°C° 0 mm 1 mps 759 mmHg 76%
02:00 +22°C° 0 mm 1 mps 759 mmHg 76%
03:00 +22°C° 0 mm 1 mps 758 mmHg 76%
04:00 +22°C° 0 mm 1 mps 758 mmHg 77%
05:00 +22°C° 0 mm 1 mps 758 mmHg 77%
06:00 +22°C° 0 mm 1 mps 758 mmHg 78%
07:00 +24°C° 0 mm 1 mps 759 mmHg 74%
08:00 +26°C° 0 mm 1 mps 759 mmHg 71%
09:00 +27°C° 0 mm 1 mps 759 mmHg 67%
10:00 +28°C° 0 mm 2 mps 759 mmHg 65%
11:00 +29°C° 0 mm 2 mps 758 mmHg 63%
12:00 +30°C° 0 mm 3 mps 758 mmHg 61%
13:00 +29°C° 0.5 mm 3 mps 757 mmHg 68%
14:00 +28°C° 0.5 mm 3 mps 757 mmHg 76%
15:00 +27°C° 0.5 mm 2 mps 756 mmHg 83%
16:00 +26°C° 0.5 mm 2 mps 756 mmHg 85%
17:00 +25°C° 0.5 mm 2 mps 757 mmHg 87%
18:00 +25°C° 0.5 mm 1 mps 757 mmHg 89%
19:00 +24°C° 0.4 mm 2 mps 758 mmHg 90%
20:00 +24°C° 0.4 mm 2 mps 759 mmHg 90%
21:00 +24°C° 0.4 mm 2 mps 759 mmHg 91%
22:00 +23°C° 0.1 mm 2 mps 759 mmHg 91%
23:00 +23°C° 0.1 mm 2 mps 759 mmHg 91%

4 October, Sunday

Time Temperature Precipitation Wind Pressure Humidity
00:00 +22°C° 0.1 mm 1 mps 759 mmHg 91%
01:00 +22°C° 0 mm 1 mps 759 mmHg 91%
02:00 +22°C° 0 mm 1 mps 758 mmHg 91%
03:00 +22°C° 0 mm 1 mps 758 mmHg 91%
04:00 +21°C° 0 mm 1 mps 758 mmHg 91%
05:00 +21°C° 0 mm 1 mps 758 mmHg 91%
06:00 +21°C° 0 mm 1 mps 758 mmHg 91%
07:00 +23°C° 0 mm 1 mps 758 mmHg 85%
08:00 +25°C° 0 mm 1 mps 759 mmHg 79%
09:00 +27°C° 0 mm 1 mps 759 mmHg 74%
10:00 +28°C° 0 mm 1 mps 759 mmHg 70%
11:00 +29°C° 0 mm 2 mps 758 mmHg 66%
12:00 +30°C° 0 mm 3 mps 758 mmHg 62%
13:00 +30°C° 0 mm 3 mps 757 mmHg 62%
14:00 +30°C° 0 mm 3 mps 756 mmHg 63%
15:00 +30°C° 0 mm 3 mps 756 mmHg 64%
16:00 +29°C° 0 mm 2 mps 756 mmHg 70%
17:00 +27°C° 0 mm 2 mps 757 mmHg 77%
18:00 +26°C° 0 mm 1 mps 757 mmHg 83%
19:00 +25°C° 0 mm 1 mps 758 mmHg 85%
20:00 +24°C° 0 mm 1 mps 759 mmHg 86%
21:00 +24°C° 0 mm 1 mps 759 mmHg 88%
22:00 +24°C° 0.2 mm 1 mps 759 mmHg 89%
23:00 +23°C° 0.2 mm 1 mps 759 mmHg 90%
Show more